sat.trackr.live / text

‹ back to catalog

STARLINK-1522

NORAD 46027 · 2020-055A

PAYLOAD ACTIVE UNKNOWN

§ Identity

Operator
Country
US
Launch date
2020-08-07
Launch site
AFETR
Launch vehicle
Mass (kg)
RCS (m²)

Purposes: comms

External: N2YO · Heavens-Above · Gunter

§ Orbital elements

Epoch: 2026-05-25T03:38:47.017248Z

Period
95.21 min
Inclination
53.0622°
Eccentricity
0.0003146
Mean motion
15.12386549 rev/d
Perigee alt
526.8 km
Apogee alt
531.1 km
Semi-major
6,907.1 km
B*
1.3171e-3
RAAN
140.9272°
Arg perigee
10.4954°
Mean anomaly
349.6103°
Rev number
32,044

§ Raw data

STARLINK-15221 46027U 20055A   26145.15193307  .00022900  00000+0  13171-2 0  99952 46027  53.0622 140.9272 0003146  10.4954 349.6103 15.12386549320444

JSON: /api/v1/satellites/46027 · /tle

For live sub-satellite position, see the globe view (requires WebGL).

§ Visibility from observer

Set your observer location to see the next 7 days of passes ≥ 10°. The values pass through the URL so the page stays shareable.

No JS? Fill the form by hand. The geolocation button needs JavaScript.